Terug naar catalogus

DOJO

ActiefWetenschapSSO
NORAD 65302·PAYLOAD·🇷🇼 Rwanda

Gelanceerd Aug 23, 2025 vanaf Rocket Lab Launch Complex 1

Loading…

Volgende Passages (komende 24 uur)

TLE

VersSource: Space-Track

Epoch: Sep 14, 2026, 05:49 UTC

1 65302U 25185F   26257.24256988  .00007112  00000-0  92689-3 0  9991
2 65302  97.9639 339.9123 0015784 150.1368 210.0748 14.80795535 57012

Volg DOJO in realtime met AllMySat

Download on the App Store